Location: Chuathbaluk
(61.5726°N, 159.2454°W)
Time: 05:04:53
(UTC+00:00)

Transit 4A - Pass Details

Date: 27 November 2020
Orbit: 864 x 980 km, 66.8° (Epoch: 26 January)

Event Time Altitude Azimuth Distance (km) Brightness Sun altitude
Rises 21:26:50 0° 248° (WSW) 3,665 11.1 6.3°
Reaches altitude 10° 21:29:24 10° 250° (WSW) 2,728 10.5 6.4°
Maximum altitude 21:35:48 71° 335° (NNW) 1,041 8.1 6.5°
Drops below altitude 10° 21:42:14 10° 59° (ENE) 2,736 10.2 6.7°
Sets 21:44:49 0° 62° (ENE) 3,678 10.8 6.7°
